| time (UTC) | temp F | wind direction | speed knots | gust knots | rain 1hr in | rain 24hr in | rain mn in | humidity % | barometer mb |
| 20260506030508 | 57 | 211 | 2.6 | 8.7 | 0.00 | 0.14 | 0.08 | 76 | 1016.2 |
| 20260506030011 | 57 | 251 | 1.7 | 7.0 | 0.00 | 0.14 | 0.08 | 76 | 1016.1 |
| 20260506025506 | 58 | 287 | 3.5 | 10.4 | 0.00 | 0.14 | 0.08 | 76 | 1016.0 |
| 20260506025005 | 58 | 250 | 2.6 | 10.4 | 0.00 | 0.14 | 0.08 | 76 | 1016.0 |
| 20260506024525 | 58 | 250 | 4.3 | 8.7 | 0.00 | 0.14 | 0.08 | 75 | 1015.9 |
| 20260506024007 | 58 | 250 | 3.5 | 7.0 | 0.00 | 0.14 | 0.08 | 75 | 1015.8 |
| 20260506023608 | 59 | 236 | 3.5 | 7.8 | 0.00 | 0.14 | 0.08 | 75 | 1015.8 |
| 20260506023020 | 59 | 252 | 3.5 | 7.8 | 0.00 | 0.14 | 0.08 | 75 | 1015.7 |
| 20260506022548 | 59 | 247 | 1.7 | 8.7 | 0.00 | 0.14 | 0.08 | 75 | 1015.7 |
| 20260506022011 | 59 | 237 | 3.5 | 8.7 | 0.00 | 0.14 | 0.08 | 74 | 1015.7 |
| 20260506021518 | 59 | 292 | 1.7 | 7.0 | 0.00 | 0.14 | 0.08 | 74 | 1015.6 |
| 20260506021006 | 59 | 266 | 3.5 | 7.0 | 0.00 | 0.14 | 0.08 | 74 | 1015.5 |
| 20260506020504 | 59 | 268 | 1.7 | 8.7 | 0.00 | 0.14 | 0.08 | 74 | 1015.7 |
| 20260506020009 | 59 | 259 | 1.7 | 8.7 | 0.00 | 0.14 | 0.08 | 74 | 1015.5 |
| 20260506015508 | 60 | 245 | 2.6 | 8.7 | 0.00 | 0.14 | 0.08 | 74 | 1015.5 |
| 20260506015004 | 60 | 273 | 3.5 | 9.6 | 0.00 | 0.14 | 0.08 | 74 | 1015.4 |
| 20260506014522 | 60 | 221 | 4.3 | 10.4 | 0.00 | 0.14 | 0.08 | 74 | 1015.4 |
| 20260506014004 | 60 | 265 | 3.5 | 10.4 | 0.00 | 0.14 | 0.08 | 73 | 1015.3 |
| 20260506013507 | 60 | 290 | 4.3 | 10.4 | 0.00 | 0.14 | 0.08 | 73 | 1015.3 |
| 20260506013021 | 61 | 276 | 2.6 | 7.8 | 0.00 | 0.14 | 0.08 | 72 | 1015.3 |
| 20260506012508 | 61 | 242 | 2.6 | 10.4 | 0.00 | 0.14 | 0.08 | 72 | 1015.3 |
| 20260506012012 | 61 | 210 | 5.2 | 10.4 | 0.00 | 0.14 | 0.08 | 72 | 1015.4 |
| 20260506011525 | 62 | 215 | 3.5 | 10.4 | 0.00 | 0.14 | 0.08 | 71 | 1015.3 |
| 20260506011010 | 62 | 271 | 2.6 | 10.4 | 0.00 | 0.14 | 0.08 | 71 | 1015.3 |
| 20260506010508 | 62 | 246 | 6.1 | 10.4 | 0.00 | 0.14 | 0.08 | 71 | 1015.4 |
| 20260506010024 | 62 | 247 | 3.5 | 9.6 | 0.00 | 0.14 | 0.08 | 71 | 1015.3 |
| 20260506005508 | 62 | 233 | 5.2 | 8.7 | 0.00 | 0.14 | 0.08 | 71 | 1015.3 |
| 20260506005008 | 62 | 223 | 5.2 | 8.7 | 0.00 | 0.14 | 0.08 | 71 | 1015.3 |
| 20260506004509 | 62 | 239 | 3.5 | 8.7 | 0.00 | 0.14 | 0.08 | 71 | 1015.2 |
| 20260506004007 | 62 | 257 | 3.5 | 9.6 | 0.00 | 0.14 | 0.08 | 71 | 1015.3 |
| 20260506003508 | 62 | 285 | 2.6 | 9.6 | 0.00 | 0.14 | 0.08 | 71 | 1015.2 |
| 20260506003012 | 62 | 239 | 2.6 | 9.6 | 0.00 | 0.14 | 0.08 | 71 | 1015.2 |
| 20260506002513 | 62 | 199 | 3.5 | 9.6 | 0.00 | 0.14 | 0.08 | 71 | 1015.1 |
| 20260506002012 | 61 | 246 | 2.6 | 8.7 | 0.00 | 0.14 | 0.08 | 72 | 1015.1 |
| 20260506001519 | 61 | 150 | 3.5 | 8.7 | 0.00 | 0.14 | 0.08 | 72 | 1015.1 |
| 20260506001008 | 61 | 201 | 2.6 | 8.7 | 0.00 | 0.14 | 0.08 | 73 | 1015.1 |
| 20260506000508 | 61 | 236 | 4.3 | 8.7 | 0.00 | 0.14 | 0.08 | 73 | 1015.2 |
| 20260506000025 | 61 | 222 | 1.7 | 8.7 | 0.00 | 0.14 | 0.08 | 74 | 1015.2 |
| 20260505235510 | 61 | 241 | 2.6 | 7.0 | 0.00 | 0.14 | 0.08 | 74 | 1015.3 |
| 20260505235012 | 60 | 257 | 3.5 | 10.4 | 0.00 | 0.14 | 0.08 | 73 | 1015.3 |
| 20260505234533 | 61 | 277 | 4.3 | 10.4 | 0.00 | 0.14 | 0.08 | 73 | 1015.3 |
| 20260505234010 | 61 | 247 | 2.6 | 8.7 | 0.00 | 0.14 | 0.08 | 74 | 1015.3 |
| 20260505233514 | 60 | 219 | 2.6 | 9.6 | 0.00 | 0.14 | 0.08 | 74 | 1015.3 |
| 20260505233014 | 60 | 257 | 4.3 | 11.3 | 0.00 | 0.14 | 0.08 | 74 | 1015.3 |
| 20260505232503 | 60 | 236 | 6.1 | 11.3 | 0.00 | 0.14 | 0.08 | 73 | 1015.3 |
| 20260505232008 | 60 | 249 | 4.3 | 10.4 | 0.00 | 0.14 | 0.08 | 74 | 1015.3 |
| 20260505231529 | 60 | 248 | 4.3 | 9.6 | 0.00 | 0.14 | 0.08 | 74 | 1015.3 |
| 20260505231007 | 60 | 148 | 5.2 | 9.6 | 0.00 | 0.14 | 0.08 | 74 | 1015.3 |
| 20260505230508 | 60 | 258 | 4.3 | 8.7 | 0.00 | 0.14 | 0.08 | 74 | 1015.3 |
| 20260505230024 | 61 | 285 | 4.3 | 8.7 | 0.00 | 0.14 | 0.08 | 74 | 1015.3 |
| 20260505225507 | 61 | 269 | 3.5 | 9.6 | 0.00 | 0.14 | 0.08 | 73 | 1015.3 |
| 20260505225006 | 61 | 247 | 5.2 | 10.4 | 0.00 | 0.14 | 0.08 | 73 | 1015.2 |
| 20260505224531 | 61 | 236 | 4.3 | 10.4 | 0.00 | 0.14 | 0.08 | 73 | 1015.3 |
| 20260505224033 | 61 | 249 | 2.6 | 8.7 | 0.00 | 0.14 | 0.08 | 74 | 1015.3 |
| 20260505223510 | 61 | 262 | 4.3 | 8.7 | 0.00 | 0.14 | 0.08 | 73 | 1015.3 |